This is the latest recevied weather packets stored in our database for station/object KC7RJK-2. If no packets are shown the sender has not sent any weather packets the latest 10 day(s).
| Time | Temp. | Humidity | Pressure | Rain* | Wind** | Luminosity | Snow |
|---|---|---|---|---|---|---|---|
| 1778107210 | 21.67° C | 63% | 1020.1 hPa | 0 mm | - | - | - |
| 1778106610 | 21.67° C | 65% | 1020.2 hPa | 0 mm | - | - | - |
| 1778106009 | 21.67° C | 65% | 1020.2 hPa | 0 mm | - | - | - |
| 1778105409 | 21.67° C | 65% | 1020.2 hPa | 0 mm | - | - | - |
| 1778104809 | 21.67° C | 64% | 1020.3 hPa | 0 mm | - | - | - |
| 1778104209 | 21.11° C | 68% | 1020.3 hPa | 0 mm | - | - | - |
| 1778103609 | 21.11° C | 69% | 1020.4 hPa | 0 mm | - | - | - |
| 1778103009 | 21.11° C | 67% | 1020.6 hPa | 0 mm | - | - | - |
| 1778102409 | 20.56° C | 67% | 1020.7 hPa | 0 mm | - | - | - |
| 1778101808 | 20.56° C | 69% | 1020.6 hPa | 0 mm | - | - | - |
| 1778101209 | 20° C | 71% | 1020.7 hPa | 0 mm | - | - | - |
| 1778100610 | 20° C | 70% | 1020.8 hPa | 0 mm | - | - | - |
| 1778100010 | 19.44° C | 72% | 1020.7 hPa | 0 mm | - | - | - |
| 1778099410 | 19.44° C | 73% | 1020.8 hPa | 0 mm | - | - | - |
| 1778098809 | 18.89° C | 72% | 1020.9 hPa | 0 mm | - | - | - |
| 1778098209 | 18.89° C | 72% | 1021 hPa | 0 mm | - | - | - |
| 1778097609 | 18.33° C | 74% | 1021.2 hPa | 0 mm | - | - | - |
| 1778097010 | 18.33° C | 74% | 1021.2 hPa | 0 mm | - | - | - |
| 1778096409 | 18.33° C | 76% | 1021.2 hPa | 0 mm | - | - | - |
| 1778095809 | 17.78° C | 77% | 1021.2 hPa | 0 mm | - | - | - |
| 1778095210 | 17.78° C | 81% | 1021.2 hPa | 0 mm | - | - | - |
| 1778094609 | 17.22° C | 80% | 1021.3 hPa | 0 mm | - | - | - |
| 1778094016 | 16.67° C | 80% | 1021.3 hPa | 0 mm | - | - | - |
| 1778093410 | 16.11° C | 83% | 1021.3 hPa | 0 mm | - | - | - |
| 1778092810 | 15.56° C | 84% | 1021.4 hPa | 0 mm | - | - | - |
* Rain latest hour (hover to see other rain measurements)
** Current wind speed in m/s (hover to see current wind gust speed)